McMinnville, OR

2:35 AM PDT on April 29, 2017 (GMT -0700)
McMinnville Municipal

Weather History for KMMV - July, 2013

Change the Weather History Date:

Tuesday, July 16, 2013

  Actual Average Record
Temperature  
Mean Temperature 71 °F 66 °F  
Max Temperature 88 °F 82 °F 104 °F (1941)
Min Temperature 54 °F 51 °F 38 °F (1957)
Degree Days  
Heating Degree Days 0 1  
Month to date heating degree days 10 30  
Since 1 July heating degree days 10 30  
Cooling Degree Days 6 3  
Month to date cooling degree days 64 32  
Year to date cooling degree days 117 54  
Growing Degree Days 21 (Base 50)    
Moisture  
Dew Point 53 °F    
Average Humidity 58    
Maximum Humidity 86    
Minimum Humidity 29    
Precipitation  
Precipitation T in 0.01 in 0.63 in (1916)
Month to date precipitation T 0.37  
Year to date precipitation 10.40 21.62  
Snow  
Snow 0.00 in - - ()
Month to date snowfall 0.0  
Since 1 June snowfall 0.0  
Snow Depth 0.00 in    
Sea Level Pressure  
Sea Level Pressure 29.83 in    
Wind  
Wind Speed 7 mph (WSW)    
Max Wind Speed 21 mph    
Max Gust Speed 25 mph    
Visibility 10 miles    
Events      
T = Trace of Precipitation, MM = Missing Value Source: NWS Daily Summary

Daily Weather History Graph

Daily Weather History Graph

Search for Another Location

Airport or City:

Trip Planner

Search our weather history database for the weather conditions in past years. The results will help you decide how hot, cold, wet, or windy it might be!

Date:

Astronomy

Jul. 16, 2013 Rise Set
Actual Time 5:40 AM PDT 8:56 PM PDT
Civil Twilight 5:04 AM PDT 9:31 PM PDT
Nautical Twilight 4:18 AM PDT 10:18 PM PDT
Astronomical Twilight 3:20 AM PDT 11:15 PM PDT
Moon 2:37 PM PDT (7/16) 12:22 AM PDT (7/16)
Length of Visible Light 16h 27m
Length of Day
15h 15m
First Quarter, 57% of the Moon is Illuminated
Jul 16
First Quarter
Jul 22
Full
Jul 29
Last Quarter
Aug 6
New
Aug 14
First Quarter

Hourly Weather History & Observations

Time (PDT) Temp. Heat Index Dew Point Humidity Pressure Visibility Wind Dir Wind Speed Gust Speed Precip Events Conditions
12:53 AM 59.0 °F - 51.1 °F 75% 29.83 in 10.0 mi WSW 3.5 mph - N/A   Clear
1:53 AM 61.0 °F - 52.0 °F 72% 29.81 in 10.0 mi NW 3.5 mph - N/A   Clear
2:53 AM 55.9 °F - 52.0 °F 87% 29.81 in 10.0 mi Calm Calm - N/A   Clear
3:53 AM 55.0 °F - 51.1 °F 86% 29.80 in 10.0 mi Calm Calm - N/A   Clear
4:53 AM 55.9 °F - 51.1 °F 84% 29.79 in 10.0 mi Calm Calm - N/A   Clear
5:53 AM 55.0 °F - 50.0 °F 83% 29.79 in 10.0 mi Calm Calm - N/A   Clear
6:53 AM 60.1 °F - 55.0 °F 83% 29.79 in 10.0 mi Calm Calm - N/A   Clear
7:53 AM 63.0 °F - 52.0 °F 67% 29.81 in 10.0 mi NNW 6.9 mph - N/A   Clear
8:53 AM 66.9 °F - 55.0 °F 66% 29.81 in 10.0 mi East 5.8 mph - 0.00 in   Partly Cloudy
9:53 AM 69.1 °F - 53.1 °F 57% 29.83 in 10.0 mi Calm Calm - N/A   Clear
10:53 AM 71.1 °F - 52.0 °F 51% 29.83 in 10.0 mi WSW 3.5 mph - N/A   Mostly Cloudy
11:53 AM 79.0 °F - 54.0 °F 42% 29.80 in 10.0 mi NNE 8.1 mph - N/A   Clear
12:53 PM 80.1 °F - 52.0 °F 38% 29.80 in 10.0 mi NW 5.8 mph - N/A   Clear
1:53 PM 79.0 °F - 55.0 °F 44% 29.80 in 10.0 mi West 5.8 mph - N/A   Clear
2:53 PM 87.1 °F - 52.0 °F 30% 29.79 in 10.0 mi West 9.2 mph - N/A   Clear
3:53 PM 84.9 °F 83.2 °F 53.1 °F 33% 29.81 in 10.0 mi WSW 12.7 mph - N/A   Clear
4:53 PM 82.0 °F - 51.1 °F 34% 29.81 in 10.0 mi WSW 11.5 mph - N/A   Partly Cloudy
5:53 PM 82.0 °F 81.3 °F 54.0 °F 38% 29.82 in 10.0 mi SSW 12.7 mph - N/A   Scattered Clouds
6:53 PM 75.9 °F - 57.0 °F 52% 29.83 in 10.0 mi SW 16.1 mph - N/A   Clear
7:53 PM 71.1 °F - 57.0 °F 61% 29.86 in 10.0 mi SW 12.7 mph - N/A   Clear
8:53 PM 68.0 °F - 55.9 °F 65% 29.88 in 10.0 mi SW 16.1 mph - N/A   Clear
9:53 PM 63.0 °F - 55.0 °F 75% 29.93 in 10.0 mi SW 16.1 mph - N/A   Clear
10:53 PM 61.0 °F - 54.0 °F 78% 29.97 in 10.0 mi SSW 13.8 mph - N/A   Clear
11:53 PM 60.1 °F - 54.0 °F 80% 29.99 in 10.0 mi South 10.4 mph - N/A   Clear